Погода в Магдагачи

Хотите узнать прогноз погоды в Магдагачи? Тогда Вам сюда: Погода в Магдагачи

Поиск расширенной информации на нашем сайте:

Полезная информация:

Новости сайта



02.01.2020
Опубликован Долгосрочный прогноз погоды по городам России и ближнего зарубежья на январь 2020 года.
Карты: Прогноз на январь и февраль 2020 года, Сравнение прогнозируемой аномалии приземной температуры воздуха на январь 2020 года по разным моделям.




Погода в Магдагачи - сегодня

Время (UTC), дата Ветер
(°,м/с) 
Видим.   Явления Облачность Т
(°С)
Тd
(°С)
f(%) Тe
(°С)
Pmin
(гПа)
dP
(гПа)
Po
(мм)
O2
(г/м3)
Тmin Tmax R s Состояние
почвы
21 23.11.20 320 (СЗ) 20000 м    ясно 
-10.8 -15.2 70 -13  1016.7  0.8  727  306           
00 24.11.20 270 (З) 20000 м    ясно 
-9.6 -15.4 63 -14  1018.3  1.8  729  306  -11      15  равномерный
сухой снег
100% 
03 24.11.20 290 (З) 20000 м  позёмок  ясно 
-5.8 -15.4 47 -10  1019.2  1.4  730  302           
06 24.11.20 290 (З) 20000 м  позёмок  3/0 средняя 
[Ac trans]
-4.9 -15.7 42 -9  1019.9  0.8  730  301           
09 24.11.20 320 (СЗ) 20000 м    3/0 средняя 
[Ac trans]
-8.2 -17 49 -12  1021.8  1.3  731  305           
12 24.11.20 320 (СЗ) 20000 м    3/0 средняя 
[Ac trans]
-10.4 -17.9 54 -14  1023.5  1.3  732  308    -4.4       
15 24.11.20 270 (З) 20000 м    ясно 
-10.6 -17.9 55 -15  1024.4  0.8  733  309           
18 24.11.20 320 (СЗ) 20000 м    ясно 
-11.2 -18.5 55 -13  1026  1.5  734  310           
21 24.11.20 320 (СЗ) 20000 м    ясно 
-12.4 -19.6 55 -14  1026.3  0.1  734  311           
00 25.11.20 320 (СЗ) 20000 м    ясно 
-13.4 -19.5 60 -16  1027.5  0.9  735  313  -13.6      15  равномерный
сухой снег
100% 
03 25.11.20 320 (СЗ) 20000 м    ясно 
-6.8 -17.3 43 -8  1026.4  735  305           
06 25.11.20 270 (З) 20000 м    6/0 верхняя 
[Ci fib]
-6.4 -17.9 40 -10  1025.8  -0.4  735  304           
09 25.11.20 320 (СЗ) 6{10}  20000 м    4/0 верхняя 
[Ci fib]
-10.2 -19.9 45 -16  1026.3  -0.2  734  309           
12 25.11.20 290 (З) 6{10}  20000 м  позёмок  ясно 
-12 -20.3 50 -18  1026.8  0.1  734  311    -6       
15 25.11.20 290 (З) 20000 м  позёмок  ясно 
-13.4 -19.5 60 -19  1026.8  -0.2  734  313           
18 25.11.20 290 (З) 20000 м  позёмок  ясно 
-12.8 -18 65 -19  1026.8  734  312           
21 25.11.20 290 (З) 6{10}  20000 м  позёмок  6/0 верхняя 
[Ci fib]
-11.8 -17.8 61 -17  1025.5  -1  734  310           
00 26.11.20 320 (СЗ) 8{10}  20000 м  позёмок  3/0 верхняя 
[Ci fib]
-11.4 -19.8 50 -18  1025.9  0.6  734  310  -13.4      14  равномерный
сухой снег
100% 
03 26.11.20 290 (З) 8{12}  20000 м  позёмок  ясно 
-9.2 -18.8 46 -15  1026.6  0.9  735  308           
06 26.11.20 340 (С) 6{12}  50000 м  позёмок  3/0 верхняя 
[Ci fib]
-7.2 -18 42 -12  1026.8  0.6  735  306           
09 26.11.20 340 (С) 4{10}  20000 м    4/0 верхняя 
[Ci fib]
-10.2 -18.7 50 -14  1028.2  0.8  736  309           
12 26.11.20 320 (СЗ) 2{10}  20000 м    4/0 верхняя 
[Ci fib]
-11.4 -18.7 55 -13  1030  1.6  737  311    -6.7       
15 26.11.20 320 (СЗ) 20000 м    ясно 
-12.4 -17.6 65 -18  1030.7  0.4  737  313           
18 26.11.20 320 (СЗ) 20000 м    ясно 
-13.8 -19 65 -20  1030.8  -0.2  737  314           
21 26.11.20 320 (СЗ) 6{10}  20000 м    ясно 
-11.6 -16.9 65 -17  1029.4  -0.8  737  311           
Время (UTC), дата Ветер
(°,м/с) 
Видим.   Явления Облачность Т
(°С)
Тd
(°С)
f(%) Тe
(°С)
Pmin
(гПа)
dP
(гПа)
Po
(мм)
O2
(г/м3)
Тmin Tmax R s Состояние
почвы

Для получения пояснительной информации подведите курсор к названию столбца.

ПОГОДА в Магдагачи - архив

Всё, что Вы хотите узнать о погоде в Магдагачи - удобно и подробно!

Выберите нужную дату (начиная с 1 января 2019* года) и нажмите кнопку "Найти".
Будут отображены архивные сводки погоды по пункту Магдагачи, начиная с указанной даты.


Отображать данные в формате CSV (для использования в таблицах Excel)


Внимание! Наш архив погоды предназначен исключительно для личного некоммерческого использования в познавательных целях. Если Вам необходимы официальные справки о состоянии погоды (для производственных, юридических, коммерческих и т.п. целей), обращайтесь в органы Росгидромета.

*Примечание: данная дата относится к архиву по метеостанциям СССР (Россия, СНГ, Балтия).
Архив по метеостанциям Зарубежной Европы и Азии (кроме Китая) хранится 10 дней, по другим регионам земного шара (Китай, Африка, Америка, Австралия, Океания) - 1 день.

Магдагачи - район местоположения метеостанции


Название, широта, долгота, высота метеостанции:
Магдагачи 53.5°ш. 125.8°д. 370 м над ур. моря [Российская Федерация]

Дополнительная информация

В oтличие oт бoльшинства пoгoдных сайтoв мы публикуем пoдрoбную метеoинфoрмацию в детальнoм прoфессиoнальнoм фoрмате.

Характеристики температуры и влажнoсти вoздуха измеряются на высoте 2 м в тени вдали oт зданий и деревьев.
Скoрoсть ветра измеряется на высoте 10 м (на урoвне рoста челoвека скoрoсть ветра ниже в 1.5-2 раза). Если метеoстанция нахoдится в гoрoде или в лесу, тo скoрoсть ветра занижена на 2-4 м/с пo сравнению с oткрытым местoм. Скoрoсть ветра над акватoриями крупных рек и oзёр, а также на вершинах хoлмoв на 2-5 м/с выше, чем в oбычных услoвиях.
Атмoсфернoе давление в разных тoчках местнoсти мoжет значительнo oтличаться oт давления на метеoстанции, в зависимoсти oт услoвий рельефа (при пoдъёме на 10 м давление пoнижается примернo на 1 мм рт.ст.).